Location: Noverd
(38.0910°N, 121.6877°W)
Time: 14:51:54
(UTC+00:00)

Envisat - Pass Details

Date: 14 April 2026
Orbit: 761 x 762 km, 98.4° (Epoch: 15 May)

Event Time Altitude Azimuth Distance (km) Brightness Sun altitude
Rises 10:20:45 0° 18° (NNE) 3,230 7.1 -33.1°
Reaches altitude 10° 10:23:07 10° 23° (NNE) 2,300 6.2 -32.8°
Enters shadow 10:26:59 44° 59° (ENE) 1,044 3.9 -32.3°
